Flag for U.S.A. Weather past 2 weeks in Farmington, New Mexico, U.S.A.

Now
54 °F

Clear.


Feels Like: 51 °F
Forecast: 31 / 72 °F
Wind: 12 mph from Northwest

Location: Four Corners Regional Airport

Current Time: Mar 26, 2015 at 9:42:32 PM

Latest Report: Mar 26, 2015 at 8:53 PM


Visibility: 10 mi

Pressure: 30.21 "Hg

Humidity: 19%

Dew point: 12 °F

Location of FarmingtonLocation

Historic Weather in Farmington — Graph

°F

Farmington temperature yesterday

Maximum temperature yesterday: 60 °F (at 2:53 PM)
Minimum temperature yesterday: 35 °F (at 3:53 AM)
Average temperature yesterday: 48 °F

Past Weeks' High & Low Weather Summary

 TemperatureHumidityPressure
High72 °F (Mar 16, 3:53 PM)88% (Mar 21, 6:53 AM)30.38 "Hg (Mar 21, 6:53 AM)
Low25 °F (Mar 26, 4:53 AM)8% (Mar 23, 5:53 PM)29.83 "Hg (Mar 19, 2:53 PM)
Average51 °F41%30.08 "Hg
* Reported Mar 11 7:53 PM — Mar 26 7:53 PM, Farmington, Weather by CustomWeather, © 2015

Note: Actual official high and low records may vary slightly from our data, if they occured in-between our weather recording intervals... More about our weather records

Advertising

Farmington weather history for previous 24 hours

 ConditionsComfort  
Time TempWeatherWind HumidityBarometerVisibility
7:53 PM
Thu, Mar 26
57 °FSunny.16 mph16%30.21 "Hg10 mi
6:53 PM60 °FSunny.23 mph14%30.18 "Hg10 mi
5:53 PM62 °FSunny.24 mph14%30.17 "Hg10 mi
4:53 PM64 °FSunny.22 mph14%30.17 "Hg10 mi
3:53 PM64 °FSunny.16 mph13%30.17 "Hg10 mi
2:53 PM62 °FSunny.N/A14%30.21 "Hg10 mi
1:53 PM59 °FSunny.5 mph14%30.23 "Hg10 mi
12:53 PM57 °FSunny.5 mph15%30.26 "Hg10 mi
11:53 AM52 °FSunny.N/A20%30.28 "Hg10 mi
10:53 AM47 °FSunny.5 mph28%30.30 "Hg10 mi
9:53 AM42 °FSunny.5 mph33%30.31 "Hg10 mi
8:53 AM36 °FSunny.6 mph40%30.32 "Hg10 mi
7:53 AM29 °FClear.6 mph51%30.31 "Hg10 mi
6:53 AM27 °FClear.5 mph53%30.29 "Hg10 mi
5:53 AM26 °FClear.No wind50%30.27 "Hg10 mi
4:53 AM25 °FClear.5 mph53%30.24 "Hg10 mi
3:53 AM29 °FClear.No wind47%30.21 "Hg10 mi
2:53 AM32 °FClear.No wind40%30.22 "Hg10 mi
1:53 AM34 °FClear.3 mph37%30.21 "Hg10 mi
12:53 AM37 °FClear.5 mph31%30.19 "Hg10 mi
11:53 PM
Wed, Mar 25
40 °FClear.5 mph27%30.18 "Hg10 mi
10:53 PM43 °FClear.7 mph22%30.15 "Hg10 mi
9:53 PM47 °FClear.13 mph18%30.13 "Hg10 mi
Weather by CustomWeather, © 2015

See weather overviewHow to use our weather pages